STARLINK-35027

Last updated on Tue Sep 16 2025 00:02:08 GMT+0000 (Coordinated Universal Time)

1 65466U 25195J 25257.90061276 .00075632 00000+0 43657-3 0 9991 2 65466 53.1553 0.8310 0005771 179.1103 180.9930 15.77984527 2990
UTC large
Height (km)
Speed (km/s)
/
Latitude / Longitude
Inclination (degrees)
Orbital Period (minutes)
Azimuth
Elevation
Range (km)
Doppler Factor

Next 0 passes for location: London (51.5072 / 0.1276)

Sorry there are no passes over London.